Meteo Giornale » Osservazioni meteo Giappone » Nagoya-Chubu
ore: 04:30 - Osservazioni Meteo Nagoya-Chubu
Lat. 34° 52' N Lon. 136° 48' E Alt. 5 metri s.l.m.
27 °C
Molto Nuvoloso
Temp. 24 Ore
26 °C
31 °C
Est/Sud-Est
16.7 Km/h
Dew point 24 °C
Umidità 83 %
Visibilità 10 Km
Il sole sorge alle ore 05:26
Il sole tramonta alle ore 18:19
| Data e Ora | Cielo e Fenomeni | T °C | DP °C | Um. % | Pres. hPa | Vis. km | Vento km/h | |
|---|---|---|---|---|---|---|---|---|
| Oggi h: 04:30 | Molto Nuvoloso | 27 | 24 | 83 | 1014 | 10 | E/SE 16.7 | |
| Oggi h: 04:00 | Molto Nuvoloso | 27 | 24 | 83 | 1014 | 10 | SE 13 | |
| Oggi h: 03:30 | Coperto | 27 | 24 | 83 | 1014 | 10 | SE 14.8 | |
| Oggi h: 03:00 | Molto Nuvoloso | 27 | 24 | 83 | 1014 | 10 | SE 16.7 | |
| Oggi h: 02:30 | Poco Nuvoloso | 27 | 24 | 83 | 1014 | 10 | SE 18.5 | |
| Oggi h: 02:00 | Molto Nuvoloso | 27 | 24 | 83 | 1014 | 10 | SE 18.5 | |
| Oggi h: 01:30 | Molto Nuvoloso | 27 | 24 | 83 | 1014 | 10 | SE 18.5 | |
| Oggi h: 01:00 | Coperto | 27 | 24 | 83 | 1014 | 10 | SE 16.7 | |
| Oggi h: 00:30 | Coperto | 27 | 24 | 83 | 1015 | 10 | SE 16.7 | |
| Oggi h: 00:00 | Coperto | 27 | 24 | 83 | 1015 | 10 | SE 14.8 | |
| Ieri h: 23:30 | Coperto | 27 | 25 | 88 | 1015 | 10 | SE 14.8 | |
| Ieri h: 23:00 | Coperto | 27 | 25 | 88 | 1015 | 10 | SE 14.8 | |
| Ieri h: 22:30 | Molto Nuvoloso | 27 | 24 | 83 | 1015 | 10 | SE 16.7 | |
| Ieri h: 22:00 | Molto Nuvoloso | 27 | 24 | 83 | 1015 | 10 | SE 14.8 | |
| Ieri h: 21:30 | Molto Nuvoloso | 27 | 25 | 88 | 1015 | 10 | SE 14.8 | |
| Ieri h: 21:00 | Molto Nuvoloso | 27 | 25 | 88 | 1016 | 10 | SE 14.8 | |
| Ieri h: 20:30 | Molto Nuvoloso | 27 | 25 | 88 | 1016 | 10 | S/SE 16.7 | |
| Ieri h: 20:00 | Molto Nuvoloso | 27 | 24 | 83 | 1015 | 10 | S/SE 16.7 | |
| Ieri h: 19:30 | Molto Nuvoloso | 27 | 25 | 88 | 1015 | 10 | S/SE 14.8 | |
| Ieri h: 19:00 | Poco Nuvoloso | 27 | 24 | 83 | 1015 | 10 | S/SE 18.5 | |
| Ieri h: 18:30 | Poco Nuvoloso | 27 | 24 | 83 | 1014 | 10 | S/SE 16.7 | |
| Ieri h: 18:00 | Poco Nuvoloso | 28 | 24 | 78 | 1014 | 10 | S/SE 18.5 | |
| Ieri h: 17:30 | Poco Nuvoloso | 28 | 24 | 78 | 1014 | 10 | S/SE 22.2 | |
| Ieri h: 17:00 | Poco Nuvoloso | 29 | 24 | 74 | 1014 | 10 | S/SE 24 | |
| Ieri h: 16:30 | Poco Nuvoloso | 29 | 24 | 74 | 1014 | 10 | S 25.9 | |
| Ieri h: 16:00 | Poco Nuvoloso | 29 | 24 | 74 | 1014 | 10 | S/SE 27.8 | |
| Ieri h: 15:30 | Poco Nuvoloso | 29 | 24 | 74 | 1014 | 10 | S 27.8 | |
| Ieri h: 15:00 | Poco Nuvoloso | 29 | 25 | 79 | 1014 | 10 | S 27.8 | |
| Ieri h: 14:30 | Molto Nuvoloso | 29 | 24 | 74 | 1014 | 10 | S 25.9 | |
| Ieri h: 14:00 | Molto Nuvoloso | 29 | 24 | 74 | 1014 | 10 | S 25.9 | |
| Ieri h: 13:30 | Molto Nuvoloso | 29 | 24 | 74 | 1014 | 10 | S 22.2 | |
| Ieri h: 13:00 | Molto Nuvoloso | 30 | 25 | 74 | 1014 | 10 | S 22.2 | |
| Ieri h: 12:30 | Molto Nuvoloso | 31 | 24 | 66 | 1015 | 10 | S 22.2 | |
| Ieri h: 12:00 | Molto Nuvoloso | 31 | 23 | 62 | 1015 | 10 | SE 20.3 | |
| Ieri h: 11:30 | Molto Nuvoloso | 29 | 23 | 70 | 1015 | 10 | S/SE 14.8 | |
| Ieri h: 11:00 | Molto Nuvoloso | 28 | 24 | 78 | 1015 | 10 | S 14.8 | |
| Ieri h: 10:30 | Molto Nuvoloso | 30 | 23 | 66 | 1015 | 10 | SE 16.7 | |
| Ieri h: 10:00 | Molto Nuvoloso | 29 | 23 | 70 | 1015 | 10 | SE 16.7 | |
| Ieri h: 09:30 | Pioggia | 28 | 23 | 74 | 1015 | 10 | E/SE 13 | |
| Ieri h: 09:00 | Molto Nuvoloso | 28 | 22 | 69 | 1015 | 10 | E/SE 14.8 | |
| Ieri h: 08:30 | Molto Nuvoloso | 28 | 23 | 74 | 1015 | 10 | SE 14.8 | |
| Ieri h: 08:00 | Molto Nuvoloso | 27 | 23 | 78 | 1015 | 10 | E/SE 14.8 | |
| Ieri h: 07:30 | Molto Nuvoloso | 27 | 23 | 78 | 1015 | 10 | E/SE 14.8 | |
| Ieri h: 07:00 | Molto Nuvoloso | 26 | 24 | 88 | 1015 | 10 | E/SE 13 | |
| Ieri h: 06:30 | Nuvoloso | 26 | 24 | 88 | 1015 | 10 | E 11.1 | |
| Ieri h: 06:00 | Pioggia nelle vicinanze | 26 | 24 | 88 | 1015 | 10 | E 18.5 | |



